O3B FM13 (43234 NORAD) Tracking and Keplerian Element Data

This shows tracking and keplerian element data for the satellite.

Feedback or suggestion? Click here.




ElementValue
Catalog43234
NameO3B FM13
Epoch Orbit801
Epoch Day228.56910027
Epoch Year2018
RAAN34.136
Inclination0.0341
Eccentricity0.0003417
Argument of Perigee89.8256
Mean Anonmoly236.0679
Mean Motion5.00114677
Decay Rate-3.1E-07
L11 43234U 18024D 18228.56910027 -.00000031 00000-0 00000-0 0 9997
L22 43234 0.0341 34.1360 0003417 89.8256 236.0679 5.00114677 8019

Live tracking and technical data element details for O3B FM13 (NORAD 43234). O3B FM13 can be tracked NOW for your location showing map with azimuth and elevation plus other details from your city location.

Track the satellite on the map from your city or location and see movement details for azimuth, elevation, latitude, longitude, range, height, and movement on the map or in text.







IsCatalogInMostPopularTable: catalog: 43234, numindb: 50
Update: records affected: 1



GetName: 43234 O3B FM13

Hit Count: updated at: Fri, 17 Aug 2018 13:19:39 GMT